Weather History for Frankfort, KY

Change the Weather History Date:

Friday, February 22, 2013

  Actual Average Record
Temperature  
Mean Temperature 44 °F 38 °F  
Max Temperature 56 °F 48 °F 72 °F (1922)
Min Temperature 31 °F 28 °F -6 °F (1963)
Degree Days  
Heating Degree Days 21 27  
Month to date heating degree days 673 644  
Since 1 July heating degree days 3376 3482  
Cooling Degree Days 0 0  
Month to date cooling degree days 0 0  
Year to date cooling degree days 0 0  
Moisture  
Dew Point 37 °F    
Average Humidity 83    
Maximum Humidity 100    
Minimum Humidity 66    
Precipitation  
Precipitation 0.16 in 0.14 in 1.55 in (1971)
Month to date precipitation 0.99 2.52  
Year to date precipitation 5.99 5.78  
Sea Level Pressure  
Sea Level Pressure 29.93 in    
Wind  
Wind Speed 6 mph (SSE)    
Max Wind Speed 23 mph    
Max Gust Speed 30 mph    
Visibility 7 miles    
Events Rain    
T = Trace of Precipitation, MM = Missing Value Source: NWS Daily Summary

Daily Weather History Graph

Daily Weather History Graph

Search for Another Location

Airport:

Trip Planner

Search our weather history database for the weather conditions in past years. The results will help you decide how hot, cold, wet, or windy it might be!

Date:

Astronomy

Feb. 22, 2013 Rise Set
Actual Time 7:20 AM EST 6:25 PM EST
Civil Twilight 6:54 AM EST 6:52 PM EST
Nautical Twilight 6:23 AM EST 7:23 PM EST
Astronomical Twilight 5:52 AM EST 7:53 PM EST
Moon 3:38 PM EST (2/22) 5:03 AM EST (2/22)
Length of Visible Light 11h 58m
Length of Day
11h 05m
Waxing Gibbous, 90% of the Moon is Illuminated
Feb 22
Waxing Gibbous
Feb 25
Full
Mar 4
Last Quarter
Mar 11
New
Mar 19
First Quarter

Hourly Weather History & Observations

Time (EST) Temp. Windchill Dew Point Humidity Pressure Visibility Wind Dir Wind Speed Gust Speed Precip Events Conditions
12:53 AM 30.9 °F 22.2 °F 28.9 °F 92% 30.01 in 4.0 mi East 10.4 mph - 0.04 in Rain Light Freezing Rain
1:03 AM 30.2 °F 21.3 °F 30.2 °F 100% 29.99 in 4.0 mi East 10.4 mph - 0.02 in Rain Light Freezing Rain
1:18 AM 30.2 °F 21.9 °F 30.2 °F 100% 29.99 in 3.0 mi ENE 9.2 mph - 0.04 in Rain Light Freezing Rain
1:42 AM 30.2 °F 21.3 °F 30.2 °F 100% 29.97 in 4.0 mi ENE 10.4 mph - 0.06 in Rain Light Freezing Rain
1:53 AM 30.9 °F 22.2 °F 30.0 °F 96% 29.98 in 3.0 mi East 10.4 mph - 0.06 in Rain Light Freezing Rain
2:02 AM 32.0 °F 23.6 °F 30.2 °F 93% 29.95 in 2.0 mi East 10.4 mph - 0.02 in Rain Light Freezing Rain
2:18 AM 32.0 °F 24.2 °F 30.2 °F 93% 29.94 in 3.0 mi East 9.2 mph - 0.03 in Rain Light Freezing Rain
2:53 AM 32.0 °F 24.2 °F 30.9 °F 96% 29.93 in 6.0 mi East 9.2 mph - 0.04 in Rain Light Freezing Rain
3:28 AM 33.8 °F 25.8 °F 32.0 °F 93% 29.88 in 7.0 mi ESE 10.4 mph 19.6 mph 0.00 in Rain Light Freezing Rain
3:53 AM 33.1 °F 27.7 °F 32.0 °F 96% 29.89 in 8.0 mi ESE 5.8 mph - 0.00 in Rain Light Freezing Rain
4:03 AM 33.8 °F 27.0 °F 32.0 °F 93% 29.88 in 8.0 mi ESE 8.1 mph - 0.00 in   Overcast
4:53 AM 33.1 °F - 33.1 °F 100% 29.91 in 5.0 mi Calm Calm - 0.01 in   Overcast
5:17 AM 33.8 °F 28.6 °F 33.8 °F 100% 29.88 in 2.5 mi ESE 5.8 mph - N/A   Overcast
5:26 AM 33.8 °F 27.7 °F 33.8 °F 100% 29.88 in 3.0 mi ESE 6.9 mph - N/A   Overcast
5:40 AM 33.8 °F 27.7 °F 33.8 °F 100% 29.88 in 2.5 mi SE 6.9 mph - N/A   Overcast
5:50 AM 33.8 °F 28.6 °F 33.8 °F 100% 29.88 in 3.0 mi SE 5.8 mph - N/A   Overcast
5:53 AM 33.1 °F 27.7 °F 33.1 °F 100% 29.90 in 2.5 mi SE 5.8 mph - N/A   Overcast
6:04 AM 33.8 °F 28.6 °F 33.8 °F 100% 29.88 in 2.5 mi ESE 5.8 mph - N/A   Overcast
6:11 AM 33.8 °F 28.6 °F 33.8 °F 100% 29.88 in 2.5 mi SE 5.8 mph - N/A   Overcast
6:22 AM 33.8 °F 30.8 °F 33.8 °F 100% 29.89 in 2.5 mi ESE 3.5 mph - N/A   Overcast
6:44 AM 33.8 °F 30.8 °F 33.8 °F 100% 29.89 in 2.5 mi SE 3.5 mph - 0.01 in   Overcast
6:53 AM 33.1 °F 28.7 °F 33.1 °F 100% 29.91 in 2.5 mi SE 4.6 mph - 0.01 in   Overcast
7:02 AM 33.8 °F 29.6 °F 33.8 °F 100% 29.89 in 3.0 mi ESE 4.6 mph - 0.00 in   Overcast
7:53 AM 35.1 °F 32.2 °F 35.1 °F 100% 29.92 in 5.0 mi South 3.5 mph - 0.00 in   Overcast
8:34 AM 37.4 °F 34.9 °F 35.6 °F 93% 29.91 in 5.0 mi SSE 3.5 mph - N/A   Overcast
8:42 AM 37.4 °F 32.8 °F 37.4 °F 100% 29.91 in 5.0 mi SSE 5.8 mph - N/A   Overcast
8:53 AM 39.0 °F 34.8 °F 37.9 °F 96% 29.93 in 6.0 mi South 5.8 mph - N/A   Overcast
9:50 AM 41.0 °F 38.0 °F 39.2 °F 93% 29.92 in 5.0 mi WSW 4.6 mph - N/A   Overcast
9:53 AM 41.0 °F 38.0 °F 39.9 °F 96% 29.94 in 5.0 mi WSW 4.6 mph - N/A   Overcast
10:51 AM 46.4 °F 41.1 °F 44.6 °F 93% 29.94 in 9.0 mi SW 11.5 mph - N/A   Overcast
10:53 AM 46.0 °F 41.4 °F 44.1 °F 93% 29.95 in 10.0 mi WSW 9.2 mph - N/A   Overcast
11:25 AM 46.4 °F 42.9 °F 42.8 °F 87% 29.94 in 10.0 mi Variable 6.9 mph - N/A   Overcast
11:53 AM 48.9 °F - 43.0 °F 80% 29.95 in 10.0 mi WSW 11.5 mph 18.4 mph N/A   Overcast
12:50 PM 51.8 °F - 42.8 °F 71% 29.94 in 10.0 mi SW 15.0 mph 23.0 mph N/A   Overcast
12:53 PM 51.1 °F - 43.0 °F 74% 29.95 in 10.0 mi SW 16.1 mph - N/A   Overcast
1:00 PM 51.8 °F - 42.8 °F 71% 29.94 in 10.0 mi SW 16.1 mph 25.3 mph N/A   Overcast
1:29 PM 53.6 °F - 42.8 °F 67% 29.93 in 10.0 mi SW 19.6 mph 29.9 mph N/A   Overcast
1:53 PM 53.1 °F - 43.0 °F 69% 29.94 in 10.0 mi SW 15.0 mph 26.5 mph N/A   Overcast
2:53 PM 54.0 °F - 43.0 °F 66% 29.93 in 10.0 mi West 11.5 mph 19.6 mph N/A   Mostly Cloudy
3:53 PM 54.0 °F - 43.0 °F 66% 29.92 in 10.0 mi WSW 9.2 mph - N/A   Mostly Cloudy
4:53 PM 51.1 °F - 42.1 °F 71% 29.93 in 10.0 mi WNW 8.1 mph - N/A   Mostly Cloudy
5:53 PM 48.9 °F - 39.9 °F 71% 29.95 in 10.0 mi WNW 5.8 mph - N/A   Mostly Cloudy
6:36 PM 46.4 °F 44.3 °F 39.2 °F 76% 29.94 in 10.0 mi NW 4.6 mph - N/A   Scattered Clouds
6:53 PM 45.0 °F 42.6 °F 39.0 °F 80% 29.96 in 10.0 mi NNW 4.6 mph - N/A   Scattered Clouds
7:04 PM 44.6 °F 42.2 °F 39.2 °F 81% 29.95 in 10.0 mi NW 4.6 mph - N/A   Mostly Cloudy
7:53 PM 44.1 °F - 37.9 °F 79% 29.98 in 10.0 mi Calm Calm - N/A   Overcast
8:53 PM 43.0 °F - 37.9 °F 82% 29.98 in 10.0 mi Calm Calm - N/A   Overcast
9:36 PM 41.0 °F - 37.4 °F 87% 29.98 in 10.0 mi Calm Calm - N/A   Overcast
9:53 PM 39.9 °F - 37.9 °F 93% 30.01 in 10.0 mi Calm Calm - N/A   Overcast
10:53 PM 37.9 °F - 37.0 °F 97% 30.00 in 10.0 mi Calm Calm - N/A   Mostly Cloudy
11:53 PM 39.0 °F - 36.0 °F 89% 29.99 in 10.0 mi Calm Calm - N/A   Mostly Cloudy